EW9824 Weather Reports


Display with metric or nautical units.
time (UTC)temp
F
wind
direction
speed
MPH
gust
MPH
rain 1hr
in
rain 24hr
in
rain mn
in
humidity
%
barometer
mb
20260905171530 55 292 0.0 2.0 0.00 0.03 0.02 94 1021.1
20260905170030 54 271 0.0 2.0 0.00 0.03 0.02 96 1021.1
20260905164528 53 318 0.0 2.0 0.00 0.03 0.02 97 1021.1
20260905163030 52 320 1.0 3.0 0.00 0.03 0.02 98 1021.1
20260905161528 52 270 0.0 2.0 0.00 0.03 0.02 98 1021.0
20260905160031 52 270 0.0 0.0 0.00 0.03 0.02 98 1021.0
20260905154532 51 270 0.0 1.0 0.00 0.03 0.02 98 1020.9
20260905153030 50 209 0.0 3.0 0.00 0.03 0.02 98 1020.9
20260905151530 49 170 0.0 1.0 0.00 0.03 0.02 98 1020.8
20260905144604 47 172 0.0 2.0 0.00 0.03 0.02 98 1020.6
20260905143030 47 179 0.0 2.0 0.00 0.03 0.02 98 1020.6
20260905141532 47 161 1.0 3.0 0.00 0.03 0.02 98 1020.5
20260905140028 46 161 1.0 3.0 0.00 0.03 0.02 98 1020.4
20260905134530 45 144 2.0 4.0 0.00 0.03 0.02 98 1020.3
20260905133032 46 157 1.0 2.0 0.00 0.03 0.02 98 1020.1
20260905131530 46 160 2.0 3.0 0.00 0.03 0.02 97 1020.0
20260905130031 47 183 1.0 3.0 0.00 0.03 0.02 97 1020.1
20260905121608 48 195 0.0 3.0 0.00 0.05 0.02 97 1020.1
20260905120104 48 173 1.0 3.0 0.00 0.05 0.02 97 1020.2
20260905114528 48 138 2.0 4.0 0.00 0.05 0.02 97 1020.0
20260905113030 49 217 0.0 1.0 0.00 0.05 0.02 97 1019.9
20260905111532 49 157 0.0 2.0 0.00 0.05 0.02 97 1019.9
20260905110031 49 157 1.0 3.0 0.00 0.05 0.02 97 1020.0
20260905104529 49 168 1.0 2.0 0.00 0.05 0.02 97 1020.0
20260905103032 49 223 0.0 2.0 0.00 0.05 0.02 97 1019.9
20260905101608 50 225 0.0 0.0 0.00 0.05 0.02 97 1020.0
20260905100031 50 225 0.0 0.0 0.01 0.05 0.02 97 1019.9
20260905094644 50 192 1.0 3.0 0.01 0.05 0.02 97 1020.0
20260905093104 50 127 1.0 3.0 0.01 0.05 0.02 97 1020.0
20260905084531 50 135 0.0 1.0 0.01 0.04 0.01 96 1019.8
20260905083035 50 140 0.0 3.0 0.01 0.04 0.01 96 1019.8
20260905081531 50 149 2.0 4.0 0.01 0.04 0.01 96 1019.7
20260905080031 51 140 2.0 4.0 0.01 0.04 0.00 96 1019.7
20260905074530 51 183 3.0 6.0 0.00 0.03 0.00 95 1019.5
20260905073031 51 157 2.0 5.0 0.01 0.03 0.00 95 1019.4
20260905071646 50 136 3.0 4.0 0.01 0.03 0.00 95 1019.3
20260905070104 50 181 2.0 4.0 0.01 0.04 0.00 94 1019.2
20260905064531 51 158 0.0 2.0 0.01 0.04 0.03 94 1019.1
20260905063030 51 217 0.0 4.0 0.00 0.03 0.03 94 1019.1
20260905061531 52 146 0.0 4.0 0.00 0.03 0.03 93 1019.0
20260905054531 51 153 2.0 4.0 0.00 0.03 0.03 92 1019.3
20260905053031 52 160 1.0 5.0 0.00 0.03 0.03 92 1019.1
20260905051527 52 157 0.0 3.0 0.00 0.03 0.03 91 1019.1
20260905050030 52 157 0.0 3.0 0.00 0.03 0.03 91 1019.1
20260905044531 52 157 1.0 3.0 0.00 0.03 0.03 91 1019.0
20260905043102 52 157 1.0 3.0 0.00 0.03 0.03 91 1018.9
20260905041530 52 157 0.0 2.0 0.00 0.03 0.03 91 1018.9
20260905040030 53 173 0.0 2.0 0.00 0.03 0.03 91 1018.8
20260905034606 52 157 2.0 3.0 0.00 0.03 0.03 90 1018.6
20260905033030 53 153 2.0 5.0 0.00 0.03 0.03 88 1018.4
20260905031530 53 331 0.0 3.0 0.00 0.03 0.03 86 1018.4
20260905030030 55 337 0.0 1.0 0.00 0.03 0.03 84 1018.3
20260905024530 56 336 0.0 3.0 0.00 0.03 0.03 81 1018.3
20260905023107 57 318 2.0 5.0 0.00 0.03 0.03 79 1018.5
20260905021531 58 339 3.0 6.0 0.00 0.03 0.03 77 1018.3
20260905020032 59 326 3.0 7.0 0.00 0.03 0.03 74 1018.0
20260905014532 60 292 1.0 4.0 0.00 0.03 0.03 72 1017.8
20260905013109 60 270 0.0 0.0 0.00 0.03 0.03 73 1017.8
20260905011605 61 270 0.0 1.0 0.00 0.03 0.03 73 1017.8
20260905010030 61 289 0.0 0.0 0.00 0.03 0.03 72 1017.8
20260905003103 61 247 0.0 3.0 0.00 0.03 0.03 73 1017.5
20260905001605 60 278 1.0 4.0 0.00 0.03 0.03 73 1017.5
20260905000029 60 303 2.0 5.0 0.00 0.03 0.03 72 1017.5
20260904234527 60 316 2.0 4.0 0.00 0.03 0.03 73 1017.4
20260904233029 60 322 3.0 6.0 0.00 0.03 0.03 73 1017.3
20260904231528 61 14 2.0 5.0 0.00 0.03 0.03 71 1017.3
20260904230030 62 21 3.0 6.0 0.00 0.03 0.03 70 1017.3
20260904224541 61 50 1.0 4.0 0.00 0.03 0.03 72 1017.3
20260904221534 59 143 0.0 4.0 0.00 0.03 0.03 77 1017.3
20260904220031 60 181 2.0 5.0 0.00 0.03 0.03 75 1017.3
20260904214529 61 180 1.0 5.0 0.00 0.03 0.03 74 1017.2
20260904210028 61 148 1.0 3.0 0.00 0.03 0.03 76 1016.8
20260904204531 59 120 0.0 3.0 0.00 0.03 0.03 77 1016.8
20260904203029 59 161 2.0 4.0 0.00 0.03 0.03 77 1016.9
20260904201533 60 116 0.0 2.0 0.00 0.03 0.03 75 1017.0
20260904200031 60 91 1.0 3.0 0.00 0.03 0.03 74 1017.0
20260904194541 58 90 0.0 3.0 0.00 0.03 0.03 75 1017.1
20260904193033 57 17 0.0 2.0 0.00 0.03 0.03 75 1017.2
20260904191531 57 328 0.0 3.0 0.00 0.03 0.03 76 1017.2
20260904190031 58 5 0.0 3.0 0.00 0.03 0.03 77 1017.3
20260904184529 57 187 0.0 4.0 0.00 0.03 0.03 80 1017.3
20260904183034 56 212 0.0 3.0 0.00 0.03 0.03 81 1017.3
20260904181532 56 229 1.0 3.0 0.00 0.03 0.03 82 1017.2
20260904180029 56 311 0.0 3.0 0.00 0.03 0.03 87 1017.1
20260904174530 53 336 1.0 4.0 0.00 0.03 0.03 91 1017.0
20260904173031 52 67 0.0 1.0 0.00 0.03 0.03 92 1016.9